This is the latest recevied weather packets stored in our database for station/object AI5YA-13. If no packets are shown the sender has not sent any weather packets the latest 10 day(s).
| Time | Temp. | Humidity | Pressure | Rain* | Wind** | Luminosity | Snow |
|---|---|---|---|---|---|---|---|
| 1777675928 | 12.78° C | 68% | 1017.7 hPa | 0 mm | - | 84 W/m² | - |
| 1777675624 | 12.78° C | 71% | 1017.5 hPa | 0 mm | - | 84 W/m² | - |
| 1777675322 | 12.78° C | 72% | 1017.6 hPa | 0 mm | - | 75 W/m² | - |
| 1777675018 | 12.78° C | 73% | 1017.7 hPa | 0 mm | - | 73 W/m² | - |
| 1777674715 | 12.78° C | 74% | 1017.4 hPa | 0 mm | - | 98 W/m² | - |
| 1777674411 | 12.78° C | 75% | 1017.5 hPa | 0 mm | - | 113 W/m² | - |
| 1777674109 | 12.78° C | 76% | 1017.3 hPa | 0 mm | - | 127 W/m² | - |
| 1777673804 | 12.78° C | 77% | 1017.3 hPa | 0 mm | - | 102 W/m² | - |
| 1777673502 | 12.78° C | 78% | 1017.1 hPa | 0 mm | - | 110 W/m² | - |
| 1777673200 | 12.78° C | 79% | 1017.1 hPa | 0 mm | - | 136 W/m² | - |
| 1777672896 | 12.78° C | 79% | 1017.3 hPa | 0 mm | - | 216 W/m² | - |
| 1777672593 | 12.78° C | 79% | 1017 hPa | 0 mm | - | 215 W/m² | - |
| 1777672288 | 12.78° C | 79% | 1016.9 hPa | 0 mm | - | 218 W/m² | - |
| 1777671983 | 13.33° C | 79% | 1016.9 hPa | 0 mm | - | 164 W/m² | - |
| 1777671679 | 13.33° C | 78% | 1017 hPa | 0 mm | - | 189 W/m² | - |
| 1777671377 | 13.33° C | 77% | 1016.9 hPa | 0 mm | - | 242 W/m² | - |
| 1777671073 | 13.33° C | 78% | 1016.9 hPa | 0 mm | - | 217 W/m² | - |
| 1777670770 | 13.33° C | 77% | 1017 hPa | 0 mm | - | 170 W/m² | - |
| 1777670466 | 12.78° C | 78% | 1016.8 hPa | 0 mm | - | 241 W/m² | - |
| 1777670163 | 12.78° C | 77% | 1016.9 hPa | 0 mm | - | 265 W/m² | - |
| 1777669861 | 12.78° C | 77% | 1016.9 hPa | 0 mm | - | 190 W/m² | - |
| 1777669556 | 12.78° C | 78% | 1017.1 hPa | 0 mm | - | 269 W/m² | - |
| 1777669254 | 12.78° C | 78% | 1016.8 hPa | 0 mm | - | 283 W/m² | - |
| 1777668950 | 12.78° C | 78% | 1017.1 hPa | 0 mm | - | 259 W/m² | - |
| 1777668648 | 12.78° C | 78% | 1017.3 hPa | 0 mm | - | 323 W/m² | - |
* Rain latest hour (hover to see other rain measurements)
** Current wind speed in m/s (hover to see current wind gust speed)